This is the latest recevied weather packets stored in our database for station/object KE8WAY. If no packets are shown the sender has not sent any weather packets the latest 10 day(s).
| Time | Temp. | Humidity | Pressure | Rain* | Wind** | Luminosity | Snow |
|---|---|---|---|---|---|---|---|
| 1777388854 | 19.44° C | 76% | 1009 hPa | 0 mm | - | 506 W/m² | - |
| 1777388551 | 19.44° C | 76% | 1009.3 hPa | 0 mm | - | 379 W/m² | - |
| 1777388246 | 18.89° C | 76% | 1009 hPa | 0 mm | - | 614 W/m² | - |
| 1777387942 | 18.89° C | 78% | 1008.9 hPa | 0 mm | - | 276 W/m² | - |
| 1777387638 | 18.89° C | 79% | 1008.9 hPa | 0 mm | - | 250 W/m² | - |
| 1777387335 | 18.89° C | 81% | 1009.3 hPa | 0 mm | - | 893 W/m² | - |
| 1777387035 | 18.89° C | 81% | 1009 hPa | 0 mm | - | 310 W/m² | - |
| 1777386731 | 18.33° C | 81% | 1009.1 hPa | 0 mm | - | 260 W/m² | - |
| 1777386429 | 18.33° C | 83% | 1008.8 hPa | 0 mm | - | 259 W/m² | - |
| 1777386125 | 18.33° C | 83% | 1008.9 hPa | 0 mm | - | 293 W/m² | - |
| 1777385821 | 18.33° C | 84% | 1009.1 hPa | 0 mm | - | 405 W/m² | - |
| 1777385518 | 17.78° C | 84% | 1008.9 hPa | 0 mm | - | 297 W/m² | - |
| 1777385216 | 17.78° C | 85% | 1008.8 hPa | 0 mm | - | 252 W/m² | - |
| 1777384911 | 17.78° C | 87% | 1008.7 hPa | 0 mm | - | 227 W/m² | - |
| 1777384609 | 17.78° C | 89% | 1008.7 hPa | 0 mm | - | 245 W/m² | - |
| 1777384308 | 17.78° C | 87% | 1008.8 hPa | 0 mm | - | 548 W/m² | - |
| 1777384004 | 17.22° C | 90% | 1008.8 hPa | 0 mm | - | 275 W/m² | - |
| 1777383700 | 16.67° C | 91% | 1008.7 hPa | 0 mm | - | 203 W/m² | - |
| 1777383397 | 16.67° C | 92% | 1008.8 hPa | 0 mm | - | 245 W/m² | - |
| 1777383094 | 16.67° C | 92% | 1008.8 hPa | 0 mm | - | 199 W/m² | - |
| 1777382791 | 16.11° C | 92% | 1008.8 hPa | 0 mm | - | 229 W/m² | - |
| 1777382486 | 16.67° C | 92% | 1008.8 hPa | 0 mm | - | 128 W/m² | - |
| 1777382182 | 16.11° C | 92% | 1008.5 hPa | 0 mm | - | 234 W/m² | - |
| 1777381879 | 16.11° C | 92% | 1008.7 hPa | 0 mm | - | 145 W/m² | - |
| 1777381578 | 16.11° C | 92% | 1008.8 hPa | 0 mm | - | 46 W/m² | - |
* Rain latest hour (hover to see other rain measurements)
** Current wind speed in m/s (hover to see current wind gust speed)